Flag for U.S.A. Weather past 2 weeks in Warren, Michigan, U.S.A.

Now
63 °F

Clear.


Feels Like: 63 °F
Forecast: 59 / 74 °F
Wind: 6 mph from West

Location: Detroit City Airport

Current Time: Jul 30, 2014 at 3:45:35 AM

Latest Report: Jul 30, 2014 at 2:53 AM


Visibility: 10 mi

Pressure: 29.94 "Hg

Humidity: 78%

Dew point: 56 °F

Location of WarrenLocation

Historic Weather in Warren — Graph

°F

Warren temperature yesterday

Maximum temperature yesterday: 75 °F (at 4:53 PM)
Minimum temperature yesterday: 56 °F (at 6:53 AM)
Average temperature yesterday: 65 °F

Past Weeks' High & Low Weather Summary

 TemperatureHumidityPressure
High89 °F (Jul 22, 7:53 PM)90% (Jul 20, 5:53 AM)30.24 "Hg (Jul 20, 5:53 AM)
Low56 °F (Jul 29, 6:53 AM)29% (Jul 17, 3:53 PM)29.56 "Hg (Jul 27, 4:53 PM)
Average70 °F61%29.98 "Hg
* Reported Jul 15 1:53 AM — Jul 30 1:53 AM, Warren, Weather by CustomWeather, © 2014

Note: Actual official high and low records may vary slightly from our data, if they occured in-between our weather recording intervals... More about our weather records

Advertising

Warren weather history for previous 24 hours

 ConditionsComfort  
Time TempWeatherWind HumidityBarometerVisibility
1:53 AM
Jul 30
63 °FPassing clouds.7 mph81%29.95 "Hg10 mi
12:53 AM65 °FPassing clouds.5 mph76%29.94 "Hg10 mi
11:53 PM
Jul 29
66 °FOvercast.6 mph75%29.96 "Hg10 mi
10:53 PM66 °FPassing clouds.3 mph73%29.96 "Hg10 mi
9:53 PM67 °FPassing clouds.6 mph73%29.96 "Hg10 mi
8:53 PM66 °FSunny.3 mph81%29.96 "Hg10 mi
7:53 PM67 °FSunny.3 mph73%29.95 "Hg10 mi
6:53 PM65 °FMore clouds than sun.3 mph73%29.95 "Hg10 mi
5:53 PM73 °FMostly cloudy.10 mph50%29.95 "Hg10 mi
4:53 PM75 °FScattered clouds.12 mph47%29.94 "Hg10 mi
3:53 PM74 °FPartly sunny.12 mph48%29.95 "Hg10 mi
2:53 PM72 °FMostly cloudy.9 mph46%29.96 "Hg10 mi
1:53 PM73 °FMostly cloudy.12 mph46%29.97 "Hg10 mi
12:53 PM71 °FMostly cloudy.7 mph45%29.98 "Hg10 mi
11:53 AM70 °FPartly sunny.9 mph46%30.00 "Hg10 mi
10:53 AM68 °FSunny.5 mph49%30.00 "Hg10 mi
9:53 AM66 °FSunny.9 mph52%30.01 "Hg10 mi
8:53 AM62 °FSunny.5 mph60%30.00 "Hg10 mi
7:53 AM58 °FSunny.5 mph70%30.00 "Hg10 mi
6:53 AM56 °FClear.6 mph70%29.98 "Hg10 mi
5:53 AM58 °FOvercast.5 mph65%29.98 "Hg10 mi
4:53 AM57 °FOvercast.3 mph69%29.98 "Hg10 mi
3:53 AM57 °FOvercast.3 mph69%29.97 "Hg10 mi
Weather by CustomWeather, © 2014

See weather overviewHow to use our weather pages